Home   Weather   France   Dijon   Past weeks
Flag for France

Past Weather in Dijon, Bourgogne-Franche-Comté, France — Yesterday and Last 2 Weeks

Currently: 37 °F. Sunny. (Weather station: Dijon Airport, France). See more current weather

Past Weather in Dijon — Graph

°F

Dijon Temperature Yesterday

Maximum temperature yesterday: 39 °F (at 11:00 am)
Minimum temperature yesterday: 32 °F (at 12:00 am)
Average temperature yesterday: 36 °F

High & Low Weather Summary for the Past Weeks

 TemperatureHumidityPressure
High48 °F (Jan 14, 9:00 pm)100% (Jan 15, 5:30 am)30.48 "Hg (Jan 15, 5:30 am)
Low25 °F (Jan 20, 6:00 am)57% (Jan 15, 3:30 pm)29.03 "Hg (Jan 17, 2:00 pm)
Average36 °F83%30.00 "Hg
* Reported Jan 14 5:00 pm — Jan 29 5:00 pm, Dijon. Weather by CustomWeather, © 2023

Note: Actual official high and low records may vary slightly from our data, if they occured in-between our weather recording intervals... More about our weather records

Dijon Weather History for the Previous 24 Hours

Scroll right to see more
 ConditionsComfort  
Time TempWeatherWind HumidityBarometerVisibility
5:00 pm
Sun, Jan 29
37 °FSunny.3 mph65%30.33 "Hg10 mi
4:30 pm39 °FSunny.3 mph61%30.33 "Hg10 mi
4:00 pm39 °FSunny.2 mph61%30.33 "Hg10 mi
3:30 pm39 °FPassing clouds.3 mph61%30.36 "HgN/A
3:00 pm37 °FOvercast.1 mph65%30.36 "HgN/A
2:30 pm37 °FOvercast.3 mph65%30.36 "HgN/A
2:00 pm37 °FOvercast.3 mph60%30.36 "HgN/A
1:00 pm37 °FPartly sunny.2 mph65%30.36 "HgN/A
12:30 pm36 °FOvercast.3 mph70%30.36 "HgN/A
12:00 pm36 °FOvercast.6 mph70%30.39 "HgN/A
11:30 am36 °FOvercast.7 mph70%30.39 "HgN/A
11:00 am34 °FOvercast.9 mph75%30.39 "HgN/A
10:30 am34 °FOvercast.12 mph75%30.42 "HgN/A
10:00 am34 °FOvercast.9 mph75%30.39 "HgN/A
9:30 am34 °FOvercast.8 mph75%30.39 "HgN/A
9:00 am32 °FOvercast.6 mph80%30.39 "HgN/A
8:30 am32 °FOvercast.6 mph80%30.36 "HgN/A
8:00 am32 °FOvercast.6 mph80%30.36 "HgN/A
7:00 am32 °FPassing clouds.7 mph80%30.36 "HgN/A
6:30 am32 °FOvercast.5 mph80%30.36 "HgN/A
6:00 am34 °FOvercast.6 mph75%30.33 "HgN/A
5:30 am34 °FOvercast.5 mph75%30.33 "HgN/A
5:00 am34 °FOvercast.5 mph81%30.33 "HgN/A
4:30 am34 °FOvercast.7 mph81%30.33 "HgN/A
4:00 am34 °FOvercast.7 mph81%30.33 "HgN/A
3:30 am32 °FOvercast.8 mph87%30.33 "HgN/A
3:00 am34 °FOvercast.9 mph81%30.33 "HgN/A
2:30 am34 °FOvercast.8 mph81%30.33 "HgN/A
2:00 am34 °FOvercast.8 mph81%30.33 "HgN/A
12:30 am34 °FPassing clouds.8 mph81%30.33 "HgN/A
12:00 am34 °FPassing clouds.9 mph81%30.33 "HgN/A
11:00 pm
Sat, Jan 28
36 °FOvercast.10 mph81%30.33 "HgN/A
10:30 pm36 °FOvercast.8 mph81%30.33 "HgN/A
10:00 pm36 °FOvercast.8 mph81%30.33 "HgN/A
9:30 pm36 °FOvercast.9 mph81%30.33 "HgN/A
9:00 pm36 °FOvercast.10 mph81%30.33 "HgN/A
8:30 pm36 °FOvercast.9 mph81%30.30 "HgN/A
8:00 pm36 °FOvercast.10 mph81%30.30 "HgN/A
7:00 pm37 °FOvercast.14 mph75%30.30 "HgN/A
6:30 pm37 °FMostly cloudy.14 mph75%30.30 "HgN/A
6:00 pm37 °FOvercast.13 mph75%30.30 "HgN/A
Weather by CustomWeather, © 2023

See weather overview